Regional Weather Roundup
Issued by NWS

Home | Current Version | Previous Version | Text Only | Print | Product List | Glossary Off
Versions: 1 2 3 4 5 6 7 8 9 10 11 12 13 14 15 16 17 18 19 20 21 22 23 24 25 26 27 28 29 30 31 32 33 34 35 36 37 38 39 40 41 42 43 44 45 46 47 48 49 50

000
ASUS43 KDTX 200310
RWRMI
MICHIGAN HOURLY REGIONAL WEATHER ROUNDUP
NATIONAL WEATHER SERVICE DETROIT/PONTIAC MI
1000 PM EST SUN NOV 19 2017

NOTE: "FAIR" INDICATES FEW OR NO CLOUDS BELOW 12,000 FEET WITH NO
SIGNIFICANT WEATHER AND/OR OBSTRUCTION TO VISIBILITY.

MIZ047>049-052>055-059>063-066>070-074>076-081>083-200400-
SOUTHEAST LOWER MICHIGAN

CITY           SKY/WX    TMP DP  RH WIND       PRES   REMARKS
ADRIAN         PTCLDY    30  21  69 W8        30.02R WCI  22
ALMA           CLOUDY    28  22  79 SW6       29.96F WCI  21
ANN ARBOR      MOCLDY    28  21  75 SW8       30.00R WCI  20
BAD AXE        CLOUDY    28  18  65 W7        29.93R WCI  21
CARO           MOCLDY    27  19  70 W10       29.95R WCI  17
DETROIT CITY   CLOUDY   N/A N/A N/A W8        30.00R
DETROIT        CLOUDY    31  19  61 W10       30.00R WCI  22
FLINT          CLOUDY    28  19  69 W8        29.98R WCI  20
GROSSE ILE     CLOUDY    31  20  63 W10       30.01R WCI  23
HILLSDALE      CLOUDY    30  21  69 SW9       29.98F WCI  22
HOWELL         MOCLDY    28  22  79 W7        29.98R WCI  21

CITY           SKY/WX    TMP DP  RH WIND       PRES   REMARKS
JACKSON        PTCLDY    28  21  75 SW7       29.99R WCI  21
LAMBERTVILLE   CLOUDY    33  23  67 W7        30.03R WCI  27
LANSING        CLOUDY    28  22  78 SW6       29.99R WCI  22
LAPEER         CLOUDY    29  19  65 W9G20     29.97R WCI  21
MASON          PTCLDY    30  23  74 SW5       29.99S WCI  25
MONROE         MOCLDY    32  22  65 W7        30.01R WCI  26
MT. CLEMENS    MOCLDY    30  19  64 NW9       29.96R WCI  22
PONTIAC        CLOUDY    28  20  71 W13       29.96R WCI  17
PORT HOPE        N/A     30  17  58 W14G22    29.89S WCI  19
PORT HURON     CLOUDY    28  16  59 W6        29.97R WCI  22
TRI CITIES     CLOUDY    28  20  71 SW7       29.97R WCI  21
MIDLAND        FAIR      26  19  73 CALM      29.95S
TROY           MOCLDY    32  20  61 W9        30.00R WCI  24
SAGINAW HB     CLOUDY    28  19  69 W5        29.97R WCI  23
$$
MIZ043>046-050>051-056>058-064>065-071>073-077>080-200400-
SOUTHWEST LOWER MICHIGAN

CITY           SKY/WX    TMP DP  RH WIND       PRES   REMARKS
BATTLE CREEK   CLOUDY    29  22  75 SW8       30.00S WCI  21
BENTON HARBOR  MOCLDY    35  22  58 W14       30.04S WCI  26
BIG RAPIDS     MOCLDY    28  19  68 W7        29.93S WCI  21
COLDWATER      PTCLDY    29  22  74 SW9       30.01S WCI  21
FREMONT        CLOUDY    31  20  63 W8        29.96F WCI  24
HOLLAND        CLOUDY    36  22  56 W15G23    30.01S WCI  27
GRAND RAPIDS   CLOUDY    31  23  72 W8        29.98S WCI  23
IONIA          FAIR      29  22  76 SW7       29.96F WCI  22
KALAMAZOO      CLOUDY    29  20  69 SW6       30.01S WCI  23
LUDINGTON      CLOUDY    33  18  55 W10G20    29.95S WCI  24
MARSHALL       CLOUDY    29  22  74 SW8       29.99S WCI  21
MOUNT PLEASANT PTCLDY    28  20  70 W3        29.94S
MUSKEGON       CLOUDY    35  20  54 W14       29.99S WCI  26
SOUTH HAVEN    PTCLDY    36  23  58 W13       30.02F WCI  27
$$
MIZ016>042-200400-
NORTHERN LOWER MICHIGAN

CITY           SKY/WX    TMP DP  RH WIND       PRES   REMARKS
ALPENA         CLOUDY    29  21  72 W8        29.87R WCI  21
BEAVER ISLAND  CLOUDY    29  16  58 W12G17    29.88S WCI  19
BELLAIRE       CLOUDY    31  21  66 W3        29.90S
CADILLAC       CLOUDY    25  19  77 W6        29.88F WCI  18
CHARLEVOIX     CLOUDY    32  20  62 W16G23    29.91S WCI  21
FRANKFORT      CLOUDY    33  20  58 W9G21     29.93S WCI  25
GAYLORD        CLOUDY    23  17  78 W8        29.83S WCI  14
GRAYLING       MOCLDY    24  17  76 W5        29.87F WCI  18
HARBOR SPRINGS CLOUDY    29  17  61 W15G23    29.87R WCI  17
MANISTEE       FLURRIES  32  20  61 W15G21    29.94S WCI  22
OSCODA         CLOUDY    28  17  62 W12       29.90S WCI  18
PELLSTON       CLOUDY    28  17  63 W12G21    29.87R WCI  18
ROGERS CITY    CLOUDY    29  18  62 W13G18    29.86R WCI  19
TRAVERSE CITY  CLOUDY    29  19  66 SW6       29.90F WCI  23
$$
MIZ007>008-015-200400-
EASTERN UPPER MICHIGAN

CITY           SKY/WX    TMP DP  RH WIND       PRES   REMARKS
KINROSS        FLURRIES  24  16  71 W12G20    29.82R WCI  13
MACKINAC ISLAN CLOUDY    30  18  59 W21G28    29.84R WCI  17
NEWBERRY       CLOUDY    22  15  71 SW13G18   29.83R WCI  10
S. S. MARIE    LGT SNOW  26  20  77 W15G21    29.79R WCI  14
MUNISING         N/A     24  16  71 SW10G16   29.86S WCI  14
$$
MIZ004>006-011>014-085-200400-
CENTRAL UPPER MICHIGAN

CITY           SKY/WX    TMP DP  RH WIND       PRES   REMARKS
MANISTIQUE     CLOUDY    23   8  51 W5        29.88S WCI  17
ESCANABA       CLOUDY    25  16  68 W3        29.90S
MENOMINEE      CLOUDY    28  15  58 SW5       29.92S WCI  23
SAWYER-GWINN   CLOUDY    21  16  79 SW5       29.84S WCI  15
$$
MIZ001>003-009>011-084-200400-
WESTERN UPPER MICHIGAN

CITY           SKY/WX    TMP DP  RH WIND       PRES   REMARKS
IRON MOUNTAIN  CLOUDY    24  12  60 W5        29.85R WCI  18
HOUGHTON       FLURRIES  24  17  74 W8        29.80S WCI  15
COPPER HARBOR    N/A     30  20  66 N22G30    29.81S WCI  17
IRONWOOD       CLOUDY   N/A N/A N/A CALM      29.83F
$$

ABBREVIATIONS USED IN REMARKS
   TC - TEMPERATURE IN CELSIUS
  WCI - WIND CHILL INDEX
   HX - HEAT INDEX
  VSB - VISIBILITY





USA.gov is the U.S. government's official web portal to all federal, state and local government web resources and services.